QPF
0.00 0.00 0.00 0.00 0.00 0.01 0.00 0.00 0.00 0.00 0.00 0.00 0.00 0.00 0.00 0.00 0.01 0.01 0.02 0.02 0.03 0.04 0.03 0.01 0.01 0.03 0.02 0.01 0.00 0.00 0.00 0.00 0.01
0.00 0.00 0.00 0.00 0.00 0.00 0.00 0.00 0.00 0.00 0.00 0.00 0.00 0.00 0.00 0.00 0.00 0.00 0.00 0.01 0.01 0.01 0.01 0.01 0.04 0.04 0.01 0.00 0.00 0.00 0.00 0.00 0.00
0.00 0.00 0.00 0.00 0.01 0.01 0.01 0.00 0.00 0.00 0.00 0.00 0.00 0.00 0.00 0.00 0.00 0.00 0.00 0.01 0.01 0.00 0.01 0.03 0.05 0.02 0.00 0.00 0.00 0.00 0.00 0.00 0.00
0.00 0.00 0.00 0.01 0.01 0.00 0.00 0.00 0.00 0.00 0.00 0.00 0.00 0.00 0.00 0.00 0.00 0.00 0.00 0.01 0.01 0.01 0.01 0.02 0.02 0.02 0.00 0.00 0.00 0.00 0.00 0.00 0.00
0.00 0.00 0.00 0.00 0.00 0.00 0.00 0.00 0.00 0.00 0.00 0.00 0.00 0.00 0.00 0.00 0.00 0.00 0.00 0.01 0.01 0.01 0.02 0.01 0.02 0.02 0.01 0.00 0.00 0.00 0.00 0.00 0.00
0.00 0.00 0.00 0.00 0.00 0.00 0.00 0.00 0.00 0.00 0.00 0.00 0.00 0.00 0.00 0.00 0.00 0.00 0.00 0.01 0.01 0.01 0.01 0.01 0.02 0.04 0.02 0.00 0.00 0.00 0.00 0.00 0.00
0.01 0.01 0.00 0.00 0.00 0.00 0.00 0.00 0.00 0.00 0.00 0.00 0.00 0.00 0.00 0.00 0.00 0.00 0.00 0.00 0.00 0.00 0.00 0.00 0.01 0.02 0.02 0.01 0.00 0.00 0.00 0.00 0.00
0.00 0.00 0.00 0.00 0.00 0.00 0.00 0.00 0.00 0.00 0.00 0.00 0.00 0.00 0.00 0.00 0.00 0.01 0.00 0.00 0.00 0.00 0.01 0.01 0.00 0.01 0.01 0.01 0.01 0.00 0.00 0.00 0.00
0.00 0.00 0.00 0.00 0.00 0.00 0.00 0.00 0.00 0.00 0.00 0.00 0.00 0.00 0.00 0.00 0.00 0.01 0.01 0.01 0.00 0.00 0.00 0.00 0.00 0.01 0.01 0.01 0.01 0.01 0.00 0.00 0.00
0.00 0.00 0.00 0.00 0.00 0.00 0.00 0.00 0.00 0.00 0.00 0.00 0.00 0.00 0.00 0.00 0.00 0.00 0.00 0.00 0.00 0.01 0.00 0.00 0.00 0.00 0.00 0.00 0.00 0.01 0.01 0.00 0.00
0.00 0.00 0.00 0.00 0.00 0.00 0.00 0.00 0.00 0.00 0.00 0.00 0.00 0.00 0.00 0.00 0.00 0.00 0.00 0.00 0.00 0.00 0.00 0.00 0.00 0.00 0.00 0.00 0.01 0.01 0.01 0.01 0.00
0.00 0.00 0.00 0.00 0.00 0.00 0.00 0.00 0.00 0.00 0.00 0.00 0.00 0.00 0.00 0.00 0.00 0.00 0.00 0.00 0.00 0.00 0.01 0.00 0.00 0.00 0.00 0.00 0.00 0.00 0.00 0.00 0.00
0.00 0.00 0.00 0.00 0.00 0.00 0.00 0.00 0.00 0.00 0.00 0.00 0.00 0.00 0.00 0.00 0.00 0.00 0.00 0.00 0.00 0.00 0.00 0.00 0.00 0.00 0.00 0.00 0.00 0.00 0.00 0.00 0.00
0.00 0.00 0.00 0.00 0.00 0.00 0.00 0.00 0.00 0.00 0.00 0.00 0.00 0.00 0.00 0.00 0.00 0.00 0.00 0.00 0.00 0.00 0.00 0.00 0.00 0.00 0.00 0.00 0.00 0.00 0.00 0.00 0.00
0.00 0.00 0.00 0.00 0.00 0.00 0.00 0.00 0.00 0.00 0.00 0.00 0.00 0.00 0.00 0.00 0.00 0.00 0.00 0.00 0.00 0.00 0.00 0.00 0.00 0.00 0.00 0.00 0.00 0.00 0.00 0.00 0.00
0.00 0.00 0.00 0.00 0.00 0.00 0.00 0.00 0.00 0.00 0.00 0.00 0.00 0.00 0.00 0.00 0.00 0.00 0.00 0.00 0.00 0.00 0.00 0.00 0.00 0.00 0.00 0.00 0.00 0.00 0.00 0.00 0.00
0.00 0.00 0.00 0.00 0.00 0.00 0.00 0.00 0.00 0.00 0.00 0.00 0.00 0.00 0.00 0.00 0.00 0.00 0.00 0.00 0.00 0.00 0.00 0.00 0.00 0.00 0.00 0.00 0.00 0.00 0.00 0.00 0.00
0.00 0.00 0.00 0.00 0.00 0.00 0.00 0.00 0.00 0.00 0.00 0.00 0.00 0.00 0.00 0.00 0.00 0.00 0.00 0.00 0.00 0.00 0.00 0.00 0.00 0.00 0.00 0.00 0.00 0.00 0.00 0.00 0.00
0.00 0.00 0.00 0.00 0.00 0.00 0.00 0.00 0.00 0.00 0.00 0.00 0.00 0.00 0.00 0.00 0.00 0.00 0.00 0.00 0.00 0.00 0.00 0.00 0.00 0.00 0.00 0.00 0.00 0.00 0.00 0.00 0.00
0.00 0.00 0.00 0.00 0.00 0.00 0.00 0.00 0.00 0.00 0.00 0.00 0.00 0.00 0.00 0.00 0.00 0.00 0.00 0.00 0.00 0.00 0.00 0.00 0.00 0.00 0.00 0.00 0.00 0.00 0.00 0.00 0.00
MSLP
1019.22 1019.59 1019.83 1020.08 1020.42 1020.74 1020.94 1021.17 1021.35 1021.53 1021.59 1021.84 1022.11 1022.28 1022.29 1022.18 1022.34 1022.26 1022.16 1022.01 1021.88 1021.94 1022.00 1022.02 1021.99 1021.91 1022.13 1022.15 1022.02 1021.89 1021.84 1021.75 1021.64
1019.66 1019.98 1020.19 1020.42 1020.74 1021.05 1021.27 1021.50 1021.66 1021.89 1022.10 1022.30 1022.48 1022.67 1022.81 1022.74 1022.73 1022.76 1022.70 1022.49 1022.35 1022.33 1022.43 1022.42 1022.41 1022.48 1022.63 1022.68 1022.65 1022.54 1022.51 1022.31 1022.27
1019.98 1020.23 1020.51 1020.77 1021.06 1021.37 1021.62 1021.80 1022.00 1022.15 1022.48 1022.71 1022.96 1023.13 1023.19 1023.21 1023.30 1023.34 1023.36 1023.15 1022.93 1022.98 1022.96 1022.92 1022.90 1023.08 1023.23 1023.26 1023.22 1023.21 1023.16 1023.06 1022.90
1020.22 1020.50 1020.84 1021.10 1021.42 1021.70 1021.94 1022.07 1022.29 1022.69 1022.94 1023.19 1023.28 1023.44 1023.60 1023.60 1023.71 1023.74 1023.87 1023.69 1023.47 1023.56 1023.47 1023.48 1023.55 1023.69 1023.78 1023.83 1023.84 1023.81 1023.75 1023.69 1023.63
1020.54 1020.87 1021.23 1021.50 1021.77 1022.03 1022.13 1022.33 1022.51 1023.02 1023.26 1023.56 1023.76 1023.90 1024.10 1024.26 1024.28 1024.33 1024.30 1024.21 1024.09 1024.12 1023.99 1024.02 1024.07 1024.11 1024.24 1024.39 1024.42 1024.37 1024.31 1024.26 1024.20
1020.87 1021.27 1021.57 1021.84 1022.06 1022.24 1022.39 1022.46 1022.77 1023.01 1023.59 1023.85 1024.15 1024.38 1024.74 1024.79 1024.76 1024.88 1024.74 1024.68 1024.56 1024.64 1024.72 1024.62 1024.58 1024.63 1024.77 1024.87 1024.96 1024.99 1024.92 1024.92 1024.75
1021.16 1021.57 1021.85 1022.14 1022.31 1022.45 1022.59 1022.78 1022.98 1023.19 1023.96 1024.30 1024.49 1024.80 1025.10 1025.22 1025.18 1025.17 1025.11 1025.05 1025.00 1025.16 1025.22 1025.20 1025.11 1025.17 1025.27 1025.34 1025.45 1025.49 1025.48 1025.47 1025.34
1021.39 1021.77 1022.20 1022.49 1022.68 1022.92 1023.14 1023.34 1023.41 1023.58 1024.05 1024.67 1025.08 1025.37 1025.49 1025.74 1025.69 1025.50 1025.62 1025.71 1025.70 1025.74 1025.62 1025.68 1025.68 1025.65 1025.72 1025.81 1025.84 1025.96 1025.98 1025.99 1025.95
1021.44 1021.95 1022.36 1022.63 1022.94 1023.27 1023.46 1023.71 1023.71 1024.05 1024.55 1025.00 1025.45 1025.63 1025.87 1026.16 1026.21 1026.13 1026.09 1026.10 1026.14 1026.17 1026.11 1026.12 1026.25 1026.27 1026.27 1026.22 1026.38 1026.36 1026.40 1026.41 1026.36
1021.50 1021.93 1022.27 1022.67 1022.95 1023.20 1023.65 1023.71 1024.04 1024.42 1024.74 1025.19 1025.52 1025.99 1026.39 1026.58 1026.61 1026.65 1026.57 1026.56 1026.63 1026.59 1026.68 1026.64 1026.62 1026.65 1026.74 1026.67 1026.67 1026.76 1026.76 1026.72 1026.78
1021.35 1021.99 1022.27 1022.59 1022.87 1023.19 1023.50 1023.84 1024.34 1024.84 1025.14 1025.60 1025.92 1026.38 1026.67 1026.87 1026.98 1027.12 1027.13 1027.04 1027.07 1026.99 1026.95 1026.98 1027.06 1027.07 1027.04 1027.00 1027.02 1027.10 1027.05 1027.06 1027.06
1021.15 1021.91 1022.27 1022.59 1022.85 1023.22 1023.63 1024.13 1024.58 1025.01 1025.31 1025.90 1026.17 1026.60 1026.86 1027.14 1027.39 1027.54 1027.61 1027.58 1027.53 1027.45 1027.30 1027.45 1027.50 1027.40 1027.48 1027.43 1027.39 1027.45 1027.56 1027.49 1027.41
1021.15 1021.71 1022.17 1022.45 1022.90 1023.39 1023.84 1024.38 1025.03 1025.50 1025.87 1026.29 1026.52 1026.81 1027.04 1027.30 1027.47 1027.67 1027.84 1027.95 1027.98 1027.98 1028.00 1027.96 1027.91 1027.88 1027.73 1027.94 1028.00 1028.02 1027.94 1027.87 1027.80
1020.92 1021.47 1022.07 1022.43 1023.02 1023.53 1023.93 1024.65 1025.03 1025.71 1026.11 1026.43 1026.67 1026.81 1027.20 1027.35 1027.47 1027.81 1028.00 1028.09 1028.21 1028.29 1028.28 1028.33 1028.33 1028.23 1028.02 1028.13 1028.30 1028.33 1028.36 1028.24 1028.16
1020.73 1021.44 1022.01 1022.42 1023.03 1023.72 1024.12 1024.73 1025.24 1025.74 1026.19 1026.58 1027.01 1027.21 1027.28 1027.39 1027.66 1027.79 1027.90 1028.09 1028.29 1028.40 1028.52 1028.66 1028.66 1028.51 1028.47 1028.46 1028.51 1028.61 1028.68 1028.60 1028.40
1020.72 1021.43 1021.97 1022.30 1022.99 1023.68 1024.08 1024.80 1025.39 1025.97 1026.29 1026.85 1027.37 1027.56 1027.54 1027.64 1027.81 1027.90 1027.97 1028.02 1028.17 1028.37 1028.60 1028.76 1028.84 1028.74 1028.71 1028.78 1028.81 1028.87 1028.82 1028.85 1028.73
1020.60 1021.27 1021.90 1022.32 1022.97 1023.63 1024.17 1024.76 1025.56 1026.04 1026.17 1026.83 1027.37 1028.01 1028.21 1027.91 1027.91 1027.95 1028.07 1028.13 1028.14 1028.25 1028.44 1028.63 1028.83 1028.87 1028.95 1029.03 1029.06 1029.09 1029.07 1028.96 1028.96
1020.44 1021.11 1021.71 1022.29 1022.80 1023.53 1023.97 1024.57 1025.13 1025.98 1026.45 1026.48 1026.71 1027.71 1027.96 1028.21 1028.21 1028.02 1028.16 1028.16 1028.30 1028.28 1028.36 1028.48 1028.64 1028.74 1028.89 1029.03 1029.14 1029.21 1029.25 1029.20 1029.07
1020.31 1020.92 1021.50 1022.11 1022.72 1023.36 1023.76 1024.19 1024.82 1025.49 1026.25 1026.66 1026.61 1026.50 1026.82 1027.90 1028.62 1028.32 1028.25 1028.19 1028.30 1028.23 1028.35 1028.54 1028.54 1028.62 1028.78 1029.00 1029.08 1029.18 1029.28 1029.29 1029.20
1020.01 1020.59 1021.24 1021.85 1022.40 1022.89 1023.40 1024.02 1024.60 1025.21 1025.96 1026.37 1026.69 1026.78 1026.86 1027.19 1027.83 1028.44 1028.54 1028.43 1028.28 1028.05 1028.20 1028.38 1028.43 1028.43 1028.56 1028.83 1028.95 1029.04 1029.16 1029.23 1029.21
Thickness
5718 5717 5716 5716 5715 5714 5714 5713 5714 5714 5714 5713 5713 5713 5713 5715 5713 5714 5714 5715 5715 5714 5713 5712 5710 5709 5706 5704 5704 5702 5701 5700 5698
5715 5715 5714 5714 5714 5712 5712 5712 5713 5712 5711 5711 5711 5711 5710 5711 5711 5712 5712 5712 5713 5712 5711 5710 5708 5706 5703 5702 5700 5699 5698 5697 5695
5713 5713 5712 5712 5711 5710 5710 5710 5710 5711 5709 5709 5708 5709 5709 5709 5709 5708 5708 5708 5709 5708 5708 5707 5705 5703 5700 5698 5697 5695 5694 5693 5692
5711 5711 5710 5710 5709 5708 5708 5709 5709 5707 5707 5707 5707 5707 5707 5708 5706 5706 5704 5705 5706 5704 5704 5703 5701 5699 5697 5695 5693 5692 5690 5689 5687
5709 5708 5707 5707 5707 5707 5708 5708 5709 5706 5706 5706 5705 5705 5704 5704 5703 5702 5702 5701 5702 5701 5701 5699 5698 5696 5694 5691 5689 5688 5687 5685 5684
5705 5706 5705 5705 5705 5705 5706 5708 5707 5707 5705 5703 5703 5702 5700 5700 5700 5699 5699 5699 5699 5697 5696 5696 5694 5692 5690 5687 5685 5683 5682 5680 5679
5702 5702 5702 5702 5703 5704 5705 5705 5706 5707 5703 5700 5700 5699 5698 5698 5697 5696 5696 5696 5695 5694 5692 5692 5691 5688 5686 5684 5681 5679 5678 5676 5675
5699 5699 5699 5700 5701 5701 5702 5702 5704 5705 5702 5697 5696 5695 5695 5694 5693 5693 5691 5691 5690 5689 5689 5688 5686 5685 5682 5680 5678 5676 5674 5671 5670
5697 5697 5698 5698 5699 5699 5700 5700 5701 5701 5697 5694 5693 5692 5691 5690 5689 5688 5687 5687 5686 5685 5684 5683 5681 5680 5678 5676 5673 5672 5670 5668 5666
5694 5694 5697 5696 5697 5697 5697 5698 5698 5696 5694 5691 5691 5688 5686 5685 5684 5683 5683 5682 5680 5680 5679 5678 5677 5676 5674 5672 5670 5667 5667 5665 5662
5692 5691 5693 5694 5694 5695 5695 5694 5694 5691 5690 5687 5686 5683 5681 5681 5680 5679 5678 5677 5676 5676 5675 5674 5672 5671 5669 5668 5666 5664 5662 5661 5659
5689 5688 5689 5690 5690 5690 5691 5689 5688 5686 5686 5682 5681 5679 5677 5676 5675 5674 5673 5673 5672 5671 5671 5668 5667 5666 5664 5663 5661 5659 5657 5656 5654
5685 5684 5685 5686 5686 5685 5685 5683 5681 5680 5680 5677 5677 5675 5674 5672 5671 5670 5669 5669 5668 5666 5664 5663 5662 5661 5661 5658 5655 5653 5652 5651 5649
5682 5683 5682 5682 5681 5681 5679 5677 5677 5674 5673 5673 5673 5672 5670 5669 5667 5667 5666 5665 5664 5662 5661 5660 5659 5658 5657 5655 5651 5649 5647 5645 5644
5679 5678 5678 5677 5677 5675 5674 5672 5671 5670 5669 5669 5667 5667 5667 5667 5665 5664 5663 5663 5661 5660 5659 5657 5656 5655 5653 5651 5648 5645 5642 5641 5640
5674 5673 5673 5674 5672 5670 5670 5668 5666 5664 5664 5662 5660 5660 5662 5662 5661 5661 5660 5660 5660 5659 5657 5655 5653 5653 5650 5647 5644 5641 5639 5636 5635
5668 5668 5667 5668 5666 5665 5664 5663 5660 5659 5661 5657 5655 5650 5652 5656 5658 5658 5656 5657 5657 5657 5655 5654 5651 5651 5648 5645 5641 5638 5635 5633 5631
5663 5663 5662 5662 5662 5660 5660 5659 5658 5654 5653 5657 5657 5647 5647 5647 5651 5654 5653 5654 5655 5655 5653 5651 5649 5649 5646 5642 5639 5635 5632 5629 5627
5658 5657 5657 5657 5656 5656 5656 5656 5655 5653 5650 5650 5654 5657 5656 5645 5641 5648 5649 5651 5652 5653 5652 5648 5647 5646 5644 5641 5637 5633 5630 5626 5624
5652 5651 5651 5651 5651 5651 5652 5651 5650 5649 5647 5646 5646 5649 5650 5649 5644 5640 5642 5645 5648 5650 5649 5646 5646 5644 5642 5639 5635 5632 5628 5624 5621